{"data":{"norad_id":63929,"intl_designator":"2025-098D","name":"STARLINK-33989","alt_names":[],"object_type":"PAYLOAD","status":"ACTIVE","operator":null,"country":"US","launch_date":"2025-05-13","launch_site_code":"AFWTR","launch_vehicle":null,"mission":null,"orbit_class":"UNKNOWN","rcs_meters":null,"size_class":null,"mass_kg":null,"dimensions":null,"purposes":["comms"],"wikipedia_slug":null,"has_3d_model":false,"image_url":null,"decayed_at":null,"tle_current":{"epoch":"2026-05-25T03:29:49.636032Z","epoch_age_seconds":52682,"freshness":"FRESH","line1":"1 63929U 25098D   26145.14571338  .00001024  00000+0  93580-4 0  9998","line2":"2 63929  70.0007  81.7325 0003349 265.5515  94.5261 14.98331862 58026","mean_motion":14.98331862,"eccentricity":0.0003349,"inclination_deg":70.0007,"raan_deg":81.7325,"arg_perigee_deg":265.5515,"mean_anomaly_deg":94.5261,"bstar":9.358e-5,"rev_number":5802,"period_min":96.10687969205,"perigee_km":569.72251519818,"apogee_km":574.37775053977,"semimajor_km":6950.187132869,"source":"CELESTRAK","updated_at":"2026-05-25T13:38:20.182945Z"}}}